Regional Weather Roundup
Issued by NWS

Home | Current Version | Previous Version | Graphics & Text | Print | Product List | Glossary On
Versions: 1 2 3 4 5 6 7 8 9 10 11 12 13 14 15 16 17 18 19 20 21 22 23 24 25 26 27 28 29 30 31 32 33 34 35 36 37 38 39 40 41 42 43 44 45 46 47 48 49 50
739
ASUS45 KCYS 091710
RWRWY

WYOMING REGIONAL WEATHER ROUNDUP
NATIONAL WEATHER SERVICE CHEYENNE WY
1000 AM MST FRI DEC 09 2016

NOTE:  "FAIR" INDICATES FEW OR NO CLOUDS BELOW 12,000 FEET
WITH NO SIGNIFICANT WEATHER AND/OR OBSTRUCTIONS TO VISIBILITY.

WYZ001-091800-
YELLOWSTONE NATIONAL PARK

CITY           SKY/WX    TMP DP  RH WIND       PRES   REMARKS
LK YELLOWSTONE   N/A     20  18  92 CALM      30.06R
W YELLOWSTONE  NOT AVBL

$$
WYZ002>013-054>058-071-098>099-091800-
NORTHERN WYOMING

CITY           SKY/WX    TMP DP  RH WIND       PRES   REMARKS
JACKSON        LGT SNOW  18  16  93 N8        30.09R WCI   7
CODY           FAIR       6  -3  66 CALM      30.16R
GREYBULL       FAIR       9  -1  64 CALM      30.25R
WORLAND        FAIR       5   1  83 CALM      30.22R
SHERIDAN       CLOUDY     7  -1  70 CALM      30.26R
BUFFALO        PTSUNNY    6  -1  73 NW3       30.17R
GILLETTE       CLOUDY     1  -4  79 W3        30.22R
HULETT         PTSUNNY   -2  -8  78 CALM      30.24R
NEWCASTLE      FAIR       9   0  66 W5        30.24R WCI   0

$$
WYZ014>020-022>026-101>103-091800-
CENTRAL WYOMING

CITY           SKY/WX    TMP DP  RH WIND       PRES   REMARKS
BIG PINEY      CLOUDY     9   7  92 CALM      30.16R
PINEDALE       LGT SNOW  14  10  85 CALM      30.16R
DUBOIS         CLOUDY    32  19  59 W18G25    30.00R WCI  20
LANDER         FAIR      10   1  67 CALM      30.08R
RIVERTON       FAIR      12   2  64 VRB3      30.10R
CASPER         FAIR       1  -4  79 NW5       30.13R WCI  -9
DOUGLAS        FAIR       4  -3  73 W5        30.16R WCI  -5

$$
WYZ021-027>030-104>119-091800-
SOUTHERN WYOMING

CITY           SKY/WX    TMP DP  RH WIND       PRES   REMARKS
EVANSTON       CLOUDY    32  30  92 SW12      30.19R FOG     WCI  23
KEMMERER         N/A     32  30  93 W8        30.16R WCI  25
FORT BRIDGER   CLOUDY    36  34  94 SW21      30.20R WCI  24
ROCK SPRINGS   FAIR      32  27  81 W25       30.14R WCI  19
DIXON          CLOUDY    34  21  60 W12G18    30.23R WCI  25
RAWLINS        PTSUNNY   32  23  69 W18G30    30.10R WCI  20
SARATOGA       PTSUNNY   32  23  69 SW20      30.14S WCI  20
LARAMIE        FAIR      32  22  66 W17       30.09R WCI  21
CHEYENNE       FAIR      41  24  51 W23G31    30.06R
TORRINGTON     FAIR      16   6  65 NW5       30.17R WCI   9
PINE BLUFFS    FAIR      19  10  68 W6        30.12R WCI  11

$$




USA.gov is the U.S. government's official web portal to all federal, state and local government web resources and services.